BAW1616 EGPH-EFHK

Flight info

Callsign BAW1616
Flight time 2h 30m
Altitude 39000
Route GRICE P600 ASNUD DCT ALOTI DCT RIVEX DCT PIPEX DCT VATEX DCT IBVUT Y363 LAKUT
Aircraft A20N/M-SDE2E3FGHIRWXY/LB1

Departure

Time 2026-04-25 19:37
Airport Edinburgh Airport (EGPH)

Arrival

Time 2026-04-25 22:07
Airport Helsinki Vantaa Airport (EFHK)
Time Latitude Longitude Altitude Speed Heading
2026-04-25 19:01 55.94903 -3.36492 108 ft 0 kts 147°
2026-04-25 19:26 55.94907 -3.36497 108 ft 1 kts 152°
2026-04-25 19:26 55.94914 -3.36503 107 ft 1 kts 158°
2026-04-25 19:27 55.94922 -3.36509 106 ft 2 kts 164°
2026-04-25 19:27 55.94933 -3.36513 108 ft 5 kts 174°
2026-04-25 19:27 55.94969 -3.36521 108 ft 7 kts 250°
2026-04-25 19:27 55.94953 -3.36576 109 ft 0 kts 239°
2026-04-25 19:30 55.94953 -3.36577 109 ft 1 kts 239°
2026-04-25 19:31 55.94925 -3.36660 110 ft 13 kts 239°
2026-04-25 19:31 55.94905 -3.36819 109 ft 11 kts 310°
2026-04-25 19:31 55.94924 -3.36866 109 ft 5 kts 280°
2026-04-25 19:31 55.94904 -3.36963 108 ft 12 kts 237°
2026-04-25 19:32 55.94855 -3.37099 109 ft 15 kts 238°
2026-04-25 19:32 55.94796 -3.37275 110 ft 18 kts 240°
2026-04-25 19:32 55.94734 -3.37464 114 ft 18 kts 236°
2026-04-25 19:32 55.94688 -3.37597 115 ft 19 kts 239°
2026-04-25 19:33 55.94589 -3.37892 114 ft 23 kts 239°
2026-04-25 19:33 55.94502 -3.38146 114 ft 26 kts 238°
2026-04-25 19:33 55.94415 -3.38397 113 ft 24 kts 238°
2026-04-25 19:33 55.94334 -3.38638 118 ft 21 kts 240°
2026-04-25 19:34 55.94282 -3.38843 123 ft 12 kts 290°
2026-04-25 19:34 55.94325 -3.38904 121 ft 0 kts 330°
2026-04-25 19:35 55.94336 -3.38916 120 ft 5 kts 330°
2026-04-25 19:35 55.94381 -3.38960 119 ft 10 kts 336°
2026-04-25 19:36 55.94429 -3.38925 121 ft 0 kts 56°
2026-04-25 19:36 55.94446 -3.38878 119 ft 25 kts 56°
2026-04-25 19:37 55.94670 -3.38221 117 ft 94 kts 58°
2026-04-25 19:37 55.95099 -3.36948 112 ft 144 kts 58°
2026-04-25 19:37 55.95670 -3.35274 404 ft 161 kts 60°
2026-04-25 19:37 55.96191 -3.33540 1041 ft 158 kts 63°
2026-04-25 19:38 55.96892 -3.31964 1602 ft 176 kts 40°
2026-04-25 19:38 55.97987 -3.30781 2501 ft 187 kts 32°
2026-04-25 19:38 55.99148 -3.29706 3572 ft 189 kts 27°
2026-04-25 19:38 56.00396 -3.28680 4409 ft 198 kts 21°
2026-04-25 19:39 56.01756 -3.28148 5025 ft 207 kts 351°
2026-04-25 19:39 56.03106 -3.29053 5583 ft 218 kts 326°
2026-04-25 19:39 56.04511 -3.30496 5898 ft 249 kts 329°
2026-04-25 19:39 56.05868 -3.32532 6000 ft 262 kts 304°
2026-04-25 19:40 56.06430 -3.34449 6004 ft 261 kts 287°
2026-04-25 19:40 56.06954 -3.38679 5998 ft 261 kts 282°
2026-04-25 19:40 56.07386 -3.41853 5998 ft 262 kts 283°
2026-04-25 19:40 56.07843 -3.44993 6002 ft 261 kts 284°
2026-04-25 19:41 56.08308 -3.48117 6002 ft 261 kts 284°
2026-04-25 19:41 56.08780 -3.51281 6005 ft 262 kts 284°
2026-04-25 19:41 56.09244 -3.54421 6001 ft 262 kts 284°
2026-04-25 19:41 56.09400 -3.55493 6003 ft 262 kts 283°
2026-04-25 19:42 56.10146 -3.60738 6382 ft 262 kts 283°
2026-04-25 19:42 56.10586 -3.63903 6881 ft 264 kts 283°
2026-04-25 19:42 56.11179 -3.67008 7364 ft 268 kts 300°
2026-04-25 19:42 56.12490 -3.69438 7877 ft 275 kts 327°
2026-04-25 19:43 56.14312 -3.70543 8374 ft 283 kts 353°
2026-04-25 19:43 56.16278 -3.70208 8900 ft 289 kts
2026-04-25 19:43 56.18248 -3.69392 9412 ft 292 kts 17°
2026-04-25 19:43 56.20136 -3.67951 9945 ft 297 kts 28°
2026-04-25 19:44 56.21843 -3.65774 10453 ft 303 kts 37°
2026-04-25 19:44 56.23565 -3.63447 10956 ft 319 kts 35°
2026-04-25 19:44 56.25410 -3.61085 11457 ft 334 kts 34°
2026-04-25 19:44 56.27344 -3.58632 11965 ft 348 kts 34°
2026-04-25 19:45 56.29348 -3.56078 12479 ft 355 kts 34°
2026-04-25 19:45 56.31364 -3.53493 13002 ft 357 kts 34°
2026-04-25 19:45 56.33418 -3.50854 13533 ft 360 kts 34°
2026-04-25 19:45 56.35464 -3.48219 14066 ft 363 kts 34°
2026-04-25 19:46 56.37529 -3.45553 14565 ft 366 kts 34°
2026-04-25 19:46 56.39604 -3.42867 15035 ft 368 kts 34°
2026-04-25 19:46 56.41689 -3.40164 15529 ft 371 kts 34°
2026-04-25 19:46 56.43781 -3.37450 16028 ft 374 kts 34°
2026-04-25 19:47 56.45901 -3.34729 16532 ft 377 kts 33°
2026-04-25 19:47 56.48071 -3.32050 17050 ft 380 kts 33°
2026-04-25 19:47 56.50266 -3.29367 17575 ft 383 kts 33°
2026-04-25 19:47 56.52500 -3.26629 18116 ft 386 kts 33°
2026-04-25 19:48 56.54726 -3.23886 18648 ft 389 kts 33°
2026-04-25 19:48 56.56966 -3.21111 19122 ft 393 kts 33°
2026-04-25 19:48 56.59236 -3.18291 19609 ft 395 kts 34°
2026-04-25 19:48 56.61490 -3.15485 20088 ft 398 kts 34°
2026-04-25 19:49 56.63784 -3.12624 20586 ft 400 kts 34°
2026-04-25 19:49 56.64555 -3.11607 20754 ft 402 kts 38°
2026-04-25 19:49 56.67404 -3.05021 21601 ft 406 kts 66°
2026-04-25 19:49 56.68478 -3.00253 22127 ft 408 kts 70°
2026-04-25 19:50 56.70503 -2.90474 23210 ft 414 kts 70°
2026-04-25 19:50 56.71541 -2.85555 23750 ft 417 kts 70°
2026-04-25 19:50 56.72595 -2.80637 24242 ft 420 kts 70°
2026-04-25 19:51 56.73665 -2.75680 24709 ft 423 kts 70°
2026-04-25 19:51 56.74744 -2.70690 25188 ft 425 kts 70°
2026-04-25 19:51 56.75829 -2.65666 25659 ft 426 kts 70°
2026-04-25 19:51 56.76909 -2.60643 26156 ft 427 kts 70°
2026-04-25 19:52 56.77999 -2.55555 26659 ft 428 kts 70°
2026-04-25 19:52 56.79072 -2.50532 27164 ft 428 kts 70°
2026-04-25 19:52 56.80153 -2.45453 27682 ft 428 kts 70°
2026-04-25 19:52 56.81225 -2.40408 28213 ft 427 kts 70°
2026-04-25 19:53 56.82289 -2.35384 28742 ft 425 kts 70°
2026-04-25 19:53 56.83355 -2.30338 29289 ft 424 kts 70°
2026-04-25 19:53 56.84061 -2.26991 29665 ft 422 kts 70°
2026-04-25 19:53 56.85112 -2.21994 30232 ft 420 kts 70°
2026-04-25 19:54 56.86153 -2.17033 30731 ft 417 kts 70°
2026-04-25 19:54 56.87530 -2.10459 31393 ft 413 kts 70°
2026-04-25 19:54 56.88217 -2.07170 31727 ft 411 kts 70°
2026-04-25 19:54 56.88896 -2.03919 32075 ft 408 kts 71°
2026-04-25 19:55 56.90226 -1.97523 32743 ft 403 kts 71°
2026-04-25 19:55 56.91213 -1.92767 33268 ft 398 kts 71°
2026-04-25 19:55 56.92189 -1.88055 33807 ft 392 kts 71°
2026-04-25 19:55 56.93144 -1.83435 34343 ft 385 kts 71°
2026-04-25 19:56 56.94084 -1.78875 34793 ft 378 kts 71°
2026-04-25 19:56 56.95007 -1.74378 35049 ft 378 kts 71°
2026-04-25 19:56 56.95930 -1.69870 35196 ft 380 kts 71°
2026-04-25 19:56 56.96868 -1.65281 35362 ft 381 kts 71°
2026-04-25 19:57 56.97791 -1.60754 35526 ft 383 kts 71°
2026-04-25 19:57 56.98734 -1.56126 35680 ft 384 kts 71°
2026-04-25 19:57 56.99663 -1.51550 35830 ft 385 kts 71°
2026-04-25 19:57 57.00603 -1.46913 35982 ft 387 kts 71°
2026-04-25 19:58 57.01541 -1.42273 36130 ft 388 kts 71°
2026-04-25 19:58 57.02473 -1.37655 36278 ft 389 kts 71°
2026-04-25 19:58 57.03419 -1.32948 36413 ft 390 kts 71°
2026-04-25 19:58 57.04356 -1.28281 36550 ft 392 kts 71°
2026-04-25 19:59 57.05297 -1.23583 36690 ft 393 kts 71°
2026-04-25 19:59 57.06237 -1.18878 36835 ft 394 kts 71°
2026-04-25 19:59 57.07173 -1.14181 36955 ft 395 kts 71°
2026-04-25 19:59 57.08120 -1.09420 37088 ft 396 kts 71°
2026-04-25 20:00 57.09067 -1.04644 37213 ft 397 kts 71°
2026-04-25 20:00 57.10954 -0.95100 37455 ft 399 kts 71°
2026-04-25 20:00 57.11899 -0.90300 37584 ft 400 kts 71°
2026-04-25 20:01 57.13803 -0.80596 37850 ft 402 kts 71°
2026-04-25 20:01 57.14747 -0.75766 37971 ft 403 kts 71°
2026-04-25 20:01 57.15696 -0.70898 38089 ft 404 kts 71°
2026-04-25 20:02 57.16644 -0.66029 38208 ft 405 kts 71°
2026-04-25 20:02 57.17590 -0.61153 38308 ft 406 kts 71°
2026-04-25 20:02 57.18538 -0.56253 38435 ft 407 kts 71°
2026-04-25 20:02 57.19486 -0.51346 38550 ft 407 kts 71°
2026-04-25 20:03 57.20444 -0.46373 38653 ft 408 kts 71°
2026-04-25 20:03 57.21387 -0.41464 38763 ft 409 kts 71°
2026-04-25 20:03 57.22340 -0.36487 38872 ft 410 kts 70°
2026-04-25 20:03 57.23286 -0.31539 38969 ft 411 kts 70°
2026-04-25 20:04 57.25177 -0.21605 39125 ft 412 kts 70°
2026-04-25 20:04 57.27071 -0.11606 39278 ft 414 kts 70°
2026-04-25 20:05 57.28984 -0.01449 39310 ft 419 kts 70°
2026-04-25 20:05 57.30904 0.08794 39307 ft 424 kts 70°
2026-04-25 20:06 57.32826 0.19110 39305 ft 428 kts 70°
2026-04-25 20:06 57.34780 0.29646 39310 ft 435 kts 70°
2026-04-25 20:07 57.36744 0.40301 39307 ft 441 kts 70°
2026-04-25 20:07 57.38730 0.51140 39307 ft 446 kts 70°
2026-04-25 20:08 57.40722 0.62073 39307 ft 445 kts 70°
2026-04-25 20:08 57.42681 0.72887 39306 ft 445 kts 70°
2026-04-25 20:09 57.44650 0.83819 39305 ft 444 kts 70°
2026-04-25 20:09 57.46597 0.94695 39307 ft 444 kts 70°
2026-04-25 20:10 57.48533 1.05569 39301 ft 444 kts 70°
2026-04-25 20:10 57.50448 1.16505 39302 ft 445 kts 70°
2026-04-25 20:11 57.52374 1.27450 39306 ft 444 kts 70°
2026-04-25 20:11 57.54301 1.38383 39302 ft 445 kts 70°
2026-04-25 20:12 57.56215 1.49373 39306 ft 445 kts 70°
2026-04-25 20:12 57.57481 1.56695 39303 ft 445 kts 70°
2026-04-25 20:13 57.59996 1.71328 39300 ft 444 kts 70°
2026-04-25 20:13 57.61863 1.82269 39297 ft 444 kts 70°
2026-04-25 20:14 57.63731 1.93278 39298 ft 444 kts 70°
2026-04-25 20:14 57.65578 2.04237 39295 ft 444 kts 70°
2026-04-25 20:15 57.67425 2.15260 39284 ft 444 kts 70°
2026-04-25 20:15 57.69267 2.26324 39278 ft 444 kts 70°
2026-04-25 20:16 57.71090 2.37340 39273 ft 444 kts 70°
2026-04-25 20:16 57.72903 2.48366 39269 ft 444 kts 70°
2026-04-25 20:17 57.74701 2.59373 39266 ft 444 kts 69°
2026-04-25 20:17 57.76505 2.70485 39262 ft 444 kts 69°
2026-04-25 20:18 57.78294 2.81574 39265 ft 444 kts 69°
2026-04-25 20:18 57.80067 2.92630 39267 ft 444 kts 69°
2026-04-25 20:19 57.81831 3.03708 39274 ft 444 kts 69°
2026-04-25 20:19 57.83592 3.14834 39272 ft 445 kts 69°
2026-04-25 20:20 57.85350 3.26018 39268 ft 445 kts 69°
2026-04-25 20:20 57.87098 3.37195 39270 ft 445 kts 69°
2026-04-25 20:21 57.88835 3.48342 39261 ft 446 kts 69°
2026-04-25 20:21 57.90564 3.59487 39258 ft 446 kts 69°
2026-04-25 20:22 57.91792 3.66922 39257 ft 444 kts 66°
2026-04-25 20:22 57.94583 3.81528 39254 ft 444 kts 65°
2026-04-25 20:23 57.96642 3.92476 39256 ft 445 kts 65°
2026-04-25 20:23 57.98673 4.03481 39250 ft 446 kts 65°
2026-04-25 20:24 58.00701 4.14560 39250 ft 446 kts 65°
2026-04-25 20:24 58.02715 4.25624 39247 ft 446 kts 65°
2026-04-25 20:25 58.04723 4.36723 39248 ft 447 kts 65°
2026-04-25 20:25 58.06729 4.47874 39243 ft 447 kts 65°
2026-04-25 20:26 58.08714 4.58973 39243 ft 447 kts 65°
2026-04-25 20:26 58.10698 4.70135 39238 ft 447 kts 65°
2026-04-25 20:27 58.12663 4.81256 39242 ft 447 kts 65°
2026-04-25 20:27 58.14622 4.92410 39230 ft 447 kts 65°
2026-04-25 20:28 58.16575 5.03600 39228 ft 447 kts 65°
2026-04-25 20:28 58.18520 5.14809 39224 ft 447 kts 65°
2026-04-25 20:29 58.20450 5.25999 39207 ft 447 kts 65°
2026-04-25 20:29 58.22372 5.37215 39202 ft 447 kts 65°
2026-04-25 20:30 58.24278 5.48411 39193 ft 447 kts 65°
2026-04-25 20:30 58.26183 5.59665 39188 ft 447 kts 64°
2026-04-25 20:31 58.28076 5.70916 39178 ft 447 kts 64°
2026-04-25 20:31 58.29961 5.82195 39174 ft 447 kts 64°
2026-04-25 20:32 58.31827 5.93432 39171 ft 447 kts 64°
2026-04-25 20:32 58.33390 6.02897 39167 ft 447 kts 64°
2026-04-25 20:33 58.35543 6.16025 39163 ft 448 kts 64°
2026-04-25 20:33 58.36774 6.23569 39158 ft 448 kts 64°
2026-04-25 20:34 58.38926 6.36843 39155 ft 448 kts 64°
2026-04-25 20:34 58.40755 6.48195 39154 ft 448 kts 64°
2026-04-25 20:35 58.42647 6.59518 39150 ft 446 kts 62°
2026-04-25 20:35 58.44730 6.70684 39154 ft 446 kts 61°
2026-04-25 20:36 58.46790 6.81837 39148 ft 446 kts 62°
2026-04-25 20:36 58.48818 6.93038 39149 ft 446 kts 62°
2026-04-25 20:37 58.50829 7.04245 39144 ft 447 kts 62°
2026-04-25 20:37 58.52842 7.15531 39143 ft 446 kts 62°
2026-04-25 20:38 58.54832 7.26753 39144 ft 447 kts 62°
2026-04-25 20:38 58.56813 7.37992 39145 ft 446 kts 62°
2026-04-25 20:39 58.58791 7.49283 39137 ft 446 kts 62°
2026-04-25 20:39 58.60433 7.58716 39133 ft 446 kts 62°
2026-04-25 20:40 58.62710 7.71859 39133 ft 446 kts 62°
2026-04-25 20:40 58.64663 7.83209 39131 ft 447 kts 62°
2026-04-25 20:41 58.66603 7.94556 39132 ft 447 kts 62°
2026-04-25 20:41 58.68525 8.05870 39131 ft 447 kts 62°
2026-04-25 20:42 58.70447 8.17254 39124 ft 447 kts 62°
2026-04-25 20:42 58.72362 8.28675 39124 ft 447 kts 62°
2026-04-25 20:43 58.74255 8.40034 39124 ft 447 kts 62°
2026-04-25 20:43 58.76152 8.51491 39121 ft 447 kts 61°
2026-04-25 20:44 58.78037 8.62946 39122 ft 447 kts 62°
2026-04-25 20:44 58.79905 8.74363 39113 ft 447 kts 62°
2026-04-25 20:45 58.81758 8.85774 39109 ft 447 kts 62°
2026-04-25 20:45 58.83608 8.97237 39104 ft 447 kts 62°
2026-04-25 20:46 58.85478 9.08697 39107 ft 445 kts 60°
2026-04-25 20:46 58.87533 9.19923 39101 ft 443 kts 59°
2026-04-25 20:47 58.89604 9.31175 39100 ft 444 kts 59°
2026-04-25 20:47 58.91638 9.42463 39097 ft 444 kts 60°
2026-04-25 20:48 58.93650 9.53747 39097 ft 444 kts 60°
2026-04-25 20:48 58.95657 9.65083 39089 ft 443 kts 60°
2026-04-25 20:49 58.97644 9.76365 39081 ft 443 kts 60°
2026-04-25 20:49 58.99618 9.87640 39071 ft 442 kts 60°
2026-04-25 20:50 59.01591 9.98979 39058 ft 442 kts 61°
2026-04-25 20:50 59.03542 10.10261 39052 ft 442 kts 61°
2026-04-25 20:51 59.05492 10.21608 39040 ft 442 kts 61°
2026-04-25 20:51 59.07429 10.32945 39037 ft 442 kts 62°
2026-04-25 20:52 59.09033 10.42398 39033 ft 442 kts 62°
2026-04-25 20:52 59.11264 10.55621 39035 ft 442 kts 62°
2026-04-25 20:53 59.12215 10.61287 39185 ft 442 kts 62°
2026-04-25 20:53 59.13174 10.67018 39197 ft 442 kts 62°
2026-04-25 20:53 59.15074 10.78430 39226 ft 442 kts 62°
2026-04-25 20:54 59.16965 10.89865 39233 ft 443 kts 63°
2026-04-25 20:54 59.18839 11.01264 39218 ft 444 kts 63°
2026-04-25 20:55 59.20721 11.12788 39182 ft 445 kts 63°
2026-04-25 20:55 59.22589 11.24302 39142 ft 446 kts 63°
2026-04-25 20:56 59.24448 11.35833 39097 ft 447 kts 63°
2026-04-25 20:56 59.26304 11.47424 39046 ft 448 kts 64°
2026-04-25 20:57 59.28157 11.59077 39030 ft 449 kts 64°
2026-04-25 20:57 59.30005 11.70776 39032 ft 450 kts 64°
2026-04-25 20:58 59.31847 11.82549 39026 ft 453 kts 65°
2026-04-25 20:58 59.33560 11.94425 39026 ft 453 kts 65°
2026-04-25 20:59 59.35335 12.06254 39027 ft 454 kts 65°
2026-04-25 20:59 59.37103 12.18122 39022 ft 454 kts 65°
2026-04-25 21:00 59.38279 12.26102 39019 ft 455 kts 65°
2026-04-25 21:01 59.41469 12.47996 39006 ft 455 kts 66°
2026-04-25 21:01 59.43191 12.59991 39005 ft 456 kts 66°
2026-04-25 21:02 59.44899 12.71980 38996 ft 456 kts 66°
2026-04-25 21:02 59.46587 12.83917 38986 ft 456 kts 66°
2026-04-25 21:03 59.48281 12.95979 38973 ft 456 kts 66°
2026-04-25 21:03 59.49953 13.07984 38969 ft 456 kts 66°
2026-04-25 21:04 59.51627 13.20087 38962 ft 456 kts 67°
2026-04-25 21:04 59.53281 13.32129 38959 ft 457 kts 67°
2026-04-25 21:05 59.54918 13.44166 38958 ft 457 kts 67°
2026-04-25 21:05 59.56562 13.56343 38965 ft 458 kts 67°
2026-04-25 21:06 59.58184 13.68444 38957 ft 458 kts 68°
2026-04-25 21:06 59.59799 13.80589 38960 ft 458 kts 68°
2026-04-25 21:07 59.61410 13.92799 38960 ft 459 kts 68°
2026-04-25 21:07 59.63007 14.04996 38955 ft 459 kts 68°
2026-04-25 21:08 59.64601 14.17278 38948 ft 460 kts 68°
2026-04-25 21:08 59.66179 14.29530 38942 ft 460 kts 68°
2026-04-25 21:09 59.71277 14.69826 38924 ft 463 kts 69°
2026-04-25 21:09 59.72823 14.82301 38920 ft 463 kts 69°
2026-04-25 21:10 59.74349 14.94698 38919 ft 463 kts 69°
2026-04-25 21:10 59.75866 15.07117 38914 ft 464 kts 70°
2026-04-25 21:11 59.77369 15.19524 38914 ft 464 kts 70°
2026-04-25 21:11 59.78873 15.32049 38905 ft 465 kts 70°
2026-04-25 21:12 59.80356 15.44508 38903 ft 465 kts 70°
2026-04-25 21:12 59.81348 15.52897 38896 ft 465 kts 70°
2026-04-25 21:13 59.83054 15.67458 38888 ft 465 kts 71°
2026-04-25 21:13 59.84508 15.79988 38884 ft 465 kts 71°
2026-04-25 21:14 59.85953 15.92555 38878 ft 466 kts 71°
2026-04-25 21:14 59.87383 16.05111 38869 ft 466 kts 71°
2026-04-25 21:15 59.88808 16.17734 38864 ft 466 kts 71°
2026-04-25 21:15 59.90212 16.30285 38853 ft 466 kts 72°
2026-04-25 21:16 59.91610 16.42903 38853 ft 466 kts 72°
2026-04-25 21:16 59.92994 16.55517 38845 ft 467 kts 72°
2026-04-25 21:17 59.94367 16.68157 38844 ft 467 kts 72°
2026-04-25 21:17 59.95730 16.80816 38841 ft 467 kts 73°
2026-04-25 21:18 59.97086 16.93535 38840 ft 468 kts 73°
2026-04-25 21:18 59.98425 17.06226 38832 ft 468 kts 73°
2026-04-25 21:19 59.99710 17.19044 38829 ft 469 kts 75°
2026-04-25 21:19 60.00852 17.31838 38822 ft 469 kts 75°
2026-04-25 21:20 60.01818 17.42553 38822 ft 469 kts 75°
2026-04-25 21:20 60.03175 17.57578 38814 ft 470 kts 75°
2026-04-25 21:21 60.04317 17.70407 38808 ft 470 kts 76°
2026-04-25 21:21 60.05445 17.83260 38802 ft 470 kts 76°
2026-04-25 21:22 60.06559 17.96120 38795 ft 470 kts 76°
2026-04-25 21:22 60.07667 18.09054 38788 ft 470 kts 76°
2026-04-25 21:23 60.08758 18.21948 38786 ft 470 kts 76°
2026-04-25 21:23 60.09835 18.34834 38784 ft 469 kts 77°
2026-04-25 21:24 60.10895 18.47667 38772 ft 469 kts 77°
2026-04-25 21:24 60.11951 18.60617 38773 ft 469 kts 77°
2026-04-25 21:25 60.12992 18.73553 38769 ft 469 kts 77°
2026-04-25 21:25 60.14018 18.86461 38765 ft 470 kts 77°
2026-04-25 21:26 60.15034 18.99409 38760 ft 470 kts 77°
2026-04-25 21:26 60.16039 19.12389 38758 ft 470 kts 78°
2026-04-25 21:27 60.17032 19.25385 38749 ft 471 kts 78°
2026-04-25 21:27 60.18012 19.38378 38737 ft 471 kts 78°
2026-04-25 21:28 60.18982 19.51420 38723 ft 472 kts 78°
2026-04-25 21:28 60.19939 19.64473 38722 ft 472 kts 78°
2026-04-25 21:29 60.20880 19.77485 38711 ft 473 kts 78°
2026-04-25 21:29 60.21352 19.84093 38528 ft 475 kts 78°
2026-04-25 21:29 60.21822 19.90708 38087 ft 476 kts 78°
2026-04-25 21:30 60.22284 19.97267 37572 ft 474 kts 78°
2026-04-25 21:30 60.22739 20.03784 37071 ft 472 kts 78°
2026-04-25 21:30 60.22974 20.10351 36579 ft 473 kts 87°
2026-04-25 21:30 60.22953 20.14789 36255 ft 474 kts 88°
2026-04-25 21:31 60.22898 20.23666 35623 ft 475 kts 88°
2026-04-25 21:31 60.22859 20.30261 35162 ft 475 kts 87°
2026-04-25 21:31 60.22823 20.36933 34705 ft 475 kts 87°
2026-04-25 21:31 60.22786 20.43590 34254 ft 475 kts 87°
2026-04-25 21:32 60.22745 20.50274 33810 ft 474 kts 87°
2026-04-25 21:32 60.22700 20.56889 33246 ft 475 kts 87°
2026-04-25 21:32 60.22652 20.63502 32590 ft 475 kts 88°
2026-04-25 21:32 60.22599 20.70128 31962 ft 473 kts 88°
2026-04-25 21:33 60.22542 20.76764 31344 ft 472 kts 88°
2026-04-25 21:33 60.22483 20.83325 30744 ft 471 kts 88°
2026-04-25 21:33 60.22420 20.89935 30150 ft 470 kts 88°
2026-04-25 21:33 60.22355 20.96462 29526 ft 467 kts 88°
2026-04-25 21:34 60.22286 21.02939 28900 ft 461 kts 88°
2026-04-25 21:34 60.22215 21.09284 28706 ft 449 kts 88°
2026-04-25 21:34 60.22070 21.22036 28670 ft 458 kts 88°
2026-04-25 21:35 60.21911 21.34785 28671 ft 457 kts 88°
2026-04-25 21:35 60.21736 21.47598 28546 ft 457 kts 88°
2026-04-25 21:36 60.21645 21.53964 28117 ft 455 kts 89°
2026-04-25 21:36 60.21551 21.60277 27469 ft 453 kts 89°
2026-04-25 21:36 60.21453 21.66636 26786 ft 449 kts 89°
2026-04-25 21:36 60.21356 21.72854 26133 ft 445 kts 89°
2026-04-25 21:37 60.21255 21.79107 25491 ft 441 kts 89°
2026-04-25 21:37 60.21189 21.83119 25089 ft 438 kts 89°
2026-04-25 21:37 60.21050 21.91247 24259 ft 433 kts 89°
2026-04-25 21:37 60.20943 21.97307 23660 ft 429 kts 89°
2026-04-25 21:38 60.20836 22.03256 23039 ft 425 kts 89°
2026-04-25 21:38 60.20726 22.09145 22310 ft 421 kts 89°
2026-04-25 21:38 60.20616 22.14978 21588 ft 417 kts 89°
2026-04-25 21:38 60.20504 22.20743 20910 ft 413 kts 89°
2026-04-25 21:39 60.20389 22.26552 20229 ft 409 kts 89°
2026-04-25 21:39 60.20274 22.32211 19568 ft 405 kts 89°
2026-04-25 21:39 60.20157 22.37828 18924 ft 401 kts 89°
2026-04-25 21:39 60.20039 22.43388 18294 ft 397 kts 89°
2026-04-25 21:40 60.19920 22.48924 17638 ft 394 kts 89°
2026-04-25 21:40 60.19801 22.54410 16915 ft 390 kts 89°
2026-04-25 21:40 60.19678 22.59819 16215 ft 386 kts 89°
2026-04-25 21:40 60.19556 22.65159 15532 ft 383 kts 89°
2026-04-25 21:41 60.19432 22.70522 14867 ft 379 kts 89°
2026-04-25 21:41 60.19309 22.75765 14222 ft 376 kts 89°
2026-04-25 21:41 60.19182 22.81035 13574 ft 373 kts 89°
2026-04-25 21:41 60.19057 22.86216 12880 ft 369 kts 88°
2026-04-25 21:42 60.18936 22.91336 12188 ft 366 kts 88°
2026-04-25 21:42 60.18807 22.96425 11503 ft 364 kts 88°
2026-04-25 21:42 60.18676 23.01449 10842 ft 361 kts 88°
2026-04-25 21:42 60.18544 23.06478 10184 ft 358 kts 88°
2026-04-25 21:43 60.18412 23.11428 9736 ft 350 kts 87°
2026-04-25 21:43 60.18278 23.16187 9596 ft 334 kts 87°
2026-04-25 21:43 60.18150 23.20755 9570 ft 315 kts 87°
2026-04-25 21:43 60.18031 23.25023 9566 ft 297 kts 86°
2026-04-25 21:44 60.17919 23.29015 9557 ft 280 kts 86°
2026-04-25 21:44 60.17812 23.32818 9557 ft 264 kts 86°
2026-04-25 21:44 60.17615 23.39723 9550 ft 234 kts 85°
2026-04-25 21:45 60.17528 23.42994 9551 ft 231 kts 85°
2026-04-25 21:45 60.17499 23.44043 9549 ft 225 kts 84°
2026-04-25 21:45 60.17354 23.49038 9555 ft 214 kts 84°
2026-04-25 21:45 60.17274 23.52008 9549 ft 213 kts 84°
2026-04-25 21:46 60.17195 23.55147 9546 ft 236 kts 85°
2026-04-25 21:46 60.17104 23.58465 9542 ft 236 kts 85°
2026-04-25 21:46 60.17002 23.61731 9540 ft 236 kts 85°
2026-04-25 21:46 60.16898 23.65007 9539 ft 237 kts 86°
2026-04-25 21:47 60.16793 23.68318 9537 ft 236 kts 85°
2026-04-25 21:47 60.16690 23.71602 9530 ft 236 kts 85°
2026-04-25 21:47 60.16589 23.74894 9308 ft 238 kts 85°
2026-04-25 21:47 60.16485 23.78283 8771 ft 245 kts 86°
2026-04-25 21:48 60.16381 23.81766 8092 ft 257 kts 86°
2026-04-25 21:48 60.16268 23.85424 7419 ft 268 kts 86°
2026-04-25 21:48 60.16147 23.89206 6810 ft 275 kts 86°
2026-04-25 21:48 60.16017 23.93005 6579 ft 268 kts 86°
2026-04-25 21:49 60.15886 23.96657 6514 ft 254 kts 86°
2026-04-25 21:49 60.15762 24.00059 6506 ft 238 kts 85°
2026-04-25 21:49 60.15648 24.03273 6502 ft 223 kts 84°
2026-04-25 21:49 60.15548 24.06372 6428 ft 223 kts 84°
2026-04-25 21:50 60.15447 24.09437 6352 ft 214 kts 84°
2026-04-25 21:50 60.15347 24.12314 6260 ft 201 kts 83°
2026-04-25 21:50 60.15254 24.15073 6041 ft 197 kts 83°
2026-04-25 21:50 60.15195 24.16899 5851 ft 196 kts 83°
2026-04-25 21:51 60.15076 24.20521 5496 ft 195 kts 82°
2026-04-25 21:51 60.14984 24.23213 5242 ft 193 kts 82°
2026-04-25 21:51 60.14887 24.25903 4964 ft 191 kts 82°
2026-04-25 21:51 60.14793 24.28547 4675 ft 190 kts 81°
2026-04-25 21:52 60.14702 24.31157 4423 ft 187 kts 81°
2026-04-25 21:52 60.14608 24.33778 4170 ft 185 kts 81°
2026-04-25 21:52 60.14516 24.36330 3899 ft 185 kts 80°
2026-04-25 21:52 60.14424 24.38900 3637 ft 185 kts 80°
2026-04-25 21:53 60.14331 24.41460 3515 ft 175 kts 79°
2026-04-25 21:53 60.14232 24.43798 3423 ft 162 kts 78°
2026-04-25 21:53 60.14142 24.45966 3325 ft 150 kts 77°
2026-04-25 21:53 60.14063 24.47926 3106 ft 148 kts 76°
2026-04-25 21:54 60.14003 24.50078 2714 ft 158 kts 75°
2026-04-25 21:54 60.13944 24.52325 2408 ft 161 kts 76°
2026-04-25 21:54 60.13860 24.54506 2313 ft 157 kts 77°
2026-04-25 21:54 60.13788 24.56891 2320 ft 181 kts 78°
2026-04-25 21:55 60.13702 24.59430 2313 ft 183 kts 79°
2026-04-25 21:55 60.13599 24.61975 2314 ft 184 kts 80°
2026-04-25 21:55 60.13493 24.64526 2316 ft 184 kts 80°
2026-04-25 21:55 60.13388 24.67094 2306 ft 184 kts 79°
2026-04-25 21:56 60.13286 24.69649 2308 ft 184 kts 80°
2026-04-25 21:56 60.13216 24.71343 2314 ft 183 kts 79°
2026-04-25 21:56 60.13119 24.73886 2305 ft 183 kts 79°
2026-04-25 21:56 60.12989 24.77285 2308 ft 180 kts 79°
2026-04-25 21:57 60.12918 24.78928 2306 ft 174 kts 78°
2026-04-25 21:57 60.12819 24.81363 2308 ft 174 kts 78°
2026-04-25 21:57 60.12728 24.83776 2308 ft 173 kts 78°
2026-04-25 21:57 60.12638 24.86184 2306 ft 173 kts 78°
2026-04-25 21:58 60.12547 24.88586 2303 ft 174 kts 78°
2026-04-25 21:58 60.12453 24.91008 2303 ft 173 kts 78°
2026-04-25 21:58 60.12358 24.93412 2307 ft 174 kts 78°
2026-04-25 21:58 60.12262 24.95821 2305 ft 173 kts 78°
2026-04-25 21:59 60.12173 24.98231 2300 ft 169 kts 73°
2026-04-25 21:59 60.12399 25.00312 2295 ft 141 kts 49°
2026-04-25 21:59 60.12850 25.02021 2299 ft 136 kts 46°
2026-04-25 22:00 60.13729 25.05399 2303 ft 137 kts 47°
2026-04-25 22:00 60.14158 25.07091 2301 ft 137 kts 47°
2026-04-25 22:00 60.14590 25.08809 2298 ft 136 kts 47°
2026-04-25 22:00 60.15015 25.10500 2302 ft 137 kts 47°
2026-04-25 22:01 60.15518 25.11931 2293 ft 113 kts 27°
2026-04-25 22:01 60.16144 25.12607 2294 ft 95 kts
2026-04-25 22:01 60.16786 25.12734 2297 ft 93 kts 355°
2026-04-25 22:01 60.17213 25.12562 2301 ft 95 kts 347°
2026-04-25 22:02 60.18018 25.11747 2299 ft 97 kts 340°
2026-04-25 22:02 60.18612 25.11132 2297 ft 96 kts 341°
2026-04-25 22:02 60.19211 25.10528 2301 ft 96 kts 341°
2026-04-25 22:02 60.19812 25.09927 2291 ft 97 kts 341°
2026-04-25 22:03 60.20420 25.09319 2045 ft 98 kts 341°
2026-04-25 22:03 60.21036 25.08707 1705 ft 98 kts 339°
2026-04-25 22:03 60.21619 25.08121 1618 ft 97 kts 338°
2026-04-25 22:03 60.22233 25.07503 1605 ft 96 kts 338°
2026-04-25 22:04 60.22836 25.06889 1605 ft 97 kts 338°
2026-04-25 22:04 60.23416 25.06298 1570 ft 96 kts 338°
2026-04-25 22:04 60.23988 25.05716 1311 ft 89 kts 337°
2026-04-25 22:04 60.24552 25.05139 1015 ft 96 kts 336°
2026-04-25 22:05 60.25172 25.04515 854 ft 98 kts 334°
2026-04-25 22:05 60.25793 25.03876 922 ft 104 kts 333°
2026-04-25 22:05 60.26401 25.03118 870 ft 100 kts 329°
2026-04-25 22:05 60.27033 25.02535 804 ft 101 kts 340°
2026-04-25 22:06 60.27669 25.01943 818 ft 102 kts 335°
2026-04-25 22:06 60.28317 25.01314 698 ft 100 kts 334°
2026-04-25 22:06 60.28914 25.00675 626 ft 98 kts 332°
2026-04-25 22:06 60.29514 25.00021 462 ft 98 kts 334°
2026-04-25 22:07 60.30095 24.99470 360 ft 97 kts 333°
2026-04-25 22:07 60.30496 24.99037 245 ft 97 kts 332°
2026-04-25 22:07 60.31269 24.98239 161 ft 79 kts 333°
2026-04-25 22:07 60.31492 24.98018 158 ft 5 kts 334°
2026-04-25 22:08 60.31570 24.97942 159 ft 13 kts 334°
2026-04-25 22:08 60.31642 24.97863 159 ft 10 kts 323°
2026-04-25 22:08 60.31672 24.97777 159 ft 5 kts 282°
2026-04-25 22:08 60.31677 24.97732 160 ft 1 kts 279°
2026-04-25 22:09 60.31677 24.97705 160 ft 3 kts 268°
2026-04-25 22:09 60.31665 24.97619 160 ft 12 kts 240°
2026-04-25 22:09 60.31660 24.97503 160 ft 5 kts 323°
2026-04-25 22:09 60.31667 24.97500 161 ft 0 kts 346°
2026-04-25 22:14 60.31694 24.97476 161 ft 12 kts 331°
2026-04-25 22:15 60.31768 24.97394 161 ft 12 kts 332°
2026-04-25 22:15 60.31838 24.97322 161 ft 10 kts 333°
2026-04-25 22:15 60.31896 24.97262 161 ft 9 kts 333°
2026-04-25 22:16 60.31979 24.97178 162 ft 5 kts 333°
2026-04-25 22:16 60.32006 24.97150 162 ft 5 kts 333°
2026-04-25 22:16 60.32043 24.97112 162 ft 6 kts 333°
2026-04-25 22:16 60.32084 24.97070 162 ft 7 kts 333°
2026-04-25 22:17 60.32126 24.97014 162 ft 7 kts 310°
2026-04-25 22:17 60.32122 24.96924 163 ft 7 kts 232°
2026-04-25 22:17 60.32087 24.96841 163 ft 8 kts 227°
2026-04-25 22:17 60.32044 24.96752 163 ft 9 kts 225°
2026-04-25 22:18 60.31999 24.96654 163 ft 10 kts 227°
2026-04-25 22:18 60.31951 24.96549 163 ft 11 kts 227°
2026-04-25 22:18 60.31901 24.96437 164 ft 11 kts 227°
2026-04-25 22:18 60.31896 24.96426 164 ft 0 kts 227°
2026-04-25 22:19 60.31893 24.96419 164 ft 3 kts 228°
2026-04-25 22:19 60.31881 24.96392 164 ft 0 kts 228°
2026-04-25 22:19 60.31874 24.96377 164 ft 7 kts 228°
2026-04-25 22:19 60.31851 24.96272 164 ft 9 kts 264°
2026-04-25 22:20 60.31836 24.96155 164 ft 9 kts 238°
2026-04-25 22:20 60.31807 24.96139 164 ft 3 kts 152°
2026-04-25 22:20 60.31792 24.96158 164 ft 1 kts 165°
2026-04-25 22:20 60.31776 24.96134 164 ft 6 kts 237°
2026-04-25 22:21 60.31756 24.96116 164 ft 2 kts 153°
2026-04-25 22:21 60.31748 24.96128 164 ft 2 kts 154°
2026-04-25 22:21 60.31722 24.96151 164 ft 5 kts 145°
2026-04-25 22:21 60.31719 24.96158 164 ft 0 kts 137°